AAL826 KATL-KAVL

Flight info

Callsign AAL826
Flight time 0h 57m
Altitude 27000
Route SMKEY2 SMKEY HUCHH SUG
Aircraft B738/M-VGDW/C

Departure

Time 2026-05-07 12:53
Airport Hartsfield Jackson Atlanta International Airport (KATL)

Arrival

Time 2026-05-07 13:50
Airport Asheville Regional Airport (KAVL)
Time Latitude Longitude Altitude Speed Heading
2026-05-07 12:27 33.63876 -84.43644 1014 ft 0 kts 90°
2026-05-07 12:43 33.63876 -84.43649 1014 ft 2 kts 91°
2026-05-07 12:43 33.63876 -84.43666 1014 ft 2 kts 91°
2026-05-07 12:44 33.63876 -84.43684 1014 ft 2 kts 91°
2026-05-07 12:44 33.63876 -84.43696 1014 ft 2 kts 91°
2026-05-07 12:44 33.63873 -84.43713 1014 ft 2 kts 52°
2026-05-07 12:44 33.63860 -84.43725 1014 ft 2 kts 12°
2026-05-07 12:45 33.63852 -84.43726 1014 ft 1 kts 351°
2026-05-07 12:45 33.63847 -84.43725 1014 ft 0 kts
2026-05-07 12:47 33.63897 -84.43724 1014 ft 9 kts
2026-05-07 12:47 33.63955 -84.43722 1014 ft 7 kts
2026-05-07 12:48 33.64026 -84.43721 1015 ft 12 kts
2026-05-07 12:48 33.64152 -84.43722 1015 ft 22 kts 359°
2026-05-07 12:48 33.64299 -84.43722 1015 ft 19 kts 359°
2026-05-07 12:48 33.64424 -84.43711 1015 ft 16 kts 34°
2026-05-07 12:49 33.64460 -84.43550 1012 ft 24 kts 91°
2026-05-07 12:49 33.64460 -84.43309 1008 ft 33 kts 88°
2026-05-07 12:49 33.64459 -84.43011 1005 ft 35 kts 90°
2026-05-07 12:49 33.64508 -84.42750 1000 ft 29 kts 44°
2026-05-07 12:50 33.64541 -84.42535 992 ft 27 kts 90°
2026-05-07 12:50 33.64543 -84.42284 984 ft 31 kts 91°
2026-05-07 12:50 33.64541 -84.42005 974 ft 35 kts 88°
2026-05-07 12:50 33.64543 -84.41707 970 ft 36 kts 88°
2026-05-07 12:51 33.64541 -84.41404 973 ft 36 kts 89°
2026-05-07 12:51 33.64543 -84.41119 976 ft 32 kts 90°
2026-05-07 12:51 33.64541 -84.40871 975 ft 26 kts 84°
2026-05-07 12:51 33.64569 -84.40687 976 ft 19 kts 91°
2026-05-07 12:52 33.64620 -84.40572 976 ft 15 kts
2026-05-07 12:52 33.64679 -84.40655 979 ft 16 kts 275°
2026-05-07 12:52 33.64681 -84.40953 983 ft 69 kts 270°
2026-05-07 12:52 33.64677 -84.41816 973 ft 137 kts 271°
2026-05-07 12:53 33.64685 -84.43165 1117 ft 177 kts 271°
2026-05-07 12:53 33.64648 -84.44783 1364 ft 214 kts 269°
2026-05-07 12:53 33.64769 -84.46648 1822 ft 242 kts 285°
2026-05-07 12:53 33.65445 -84.48576 2600 ft 256 kts 298°
2026-05-07 12:54 33.66274 -84.50398 3670 ft 250 kts 297°
2026-05-07 12:54 33.67054 -84.52222 4571 ft 248 kts 295°
2026-05-07 12:54 33.67807 -84.54078 5394 ft 249 kts 294°
2026-05-07 12:54 33.68588 -84.55900 6165 ft 253 kts 300°
2026-05-07 12:55 33.69826 -84.57439 6899 ft 265 kts 322°
2026-05-07 12:55 33.71544 -84.58293 7711 ft 276 kts 342°
2026-05-07 12:55 33.73503 -84.58403 8491 ft 286 kts 356°
2026-05-07 12:55 33.75495 -84.58208 9137 ft 291 kts 356°
2026-05-07 12:56 33.77513 -84.58057 9728 ft 296 kts 354°
2026-05-07 12:56 33.79629 -84.57967 9987 ft 307 kts 354°
2026-05-07 12:56 33.81798 -84.57744 10136 ft 322 kts
2026-05-07 12:56 33.83968 -84.56766 10558 ft 344 kts 21°
2026-05-07 12:57 33.86105 -84.55248 10725 ft 368 kts 27°
2026-05-07 12:57 33.88298 -84.53544 10973 ft 384 kts 27°
2026-05-07 12:57 33.90597 -84.51833 11442 ft 390 kts 25°
2026-05-07 12:57 33.92942 -84.50179 11931 ft 396 kts 24°
2026-05-07 12:58 33.95346 -84.48564 12478 ft 399 kts 23°
2026-05-07 12:58 33.97825 -84.46954 13021 ft 402 kts 22°
2026-05-07 12:58 34.00297 -84.45359 13523 ft 407 kts 22°
2026-05-07 12:58 34.02797 -84.43739 14003 ft 412 kts 22°
2026-05-07 12:59 34.05280 -84.42118 14739 ft 408 kts 21°
2026-05-07 12:59 34.07776 -84.40487 15400 ft 406 kts 21°
2026-05-07 12:59 34.10258 -84.38855 15854 ft 411 kts 21°
2026-05-07 12:59 34.12805 -84.37149 16277 ft 417 kts 22°
2026-05-07 13:00 34.15310 -84.35419 16852 ft 417 kts 22°
2026-05-07 13:00 34.17838 -84.33649 17226 ft 422 kts 22°
2026-05-07 13:00 34.20388 -84.31879 17641 ft 426 kts 21°
2026-05-07 13:00 34.22977 -84.30097 18048 ft 429 kts 21°
2026-05-07 13:01 34.25577 -84.28355 18345 ft 433 kts 19°
2026-05-07 13:01 34.28295 -84.26836 18731 ft 429 kts 12°
2026-05-07 13:01 34.31149 -84.25696 19150 ft 424 kts
2026-05-07 13:01 34.33969 -84.24905 19630 ft 418 kts
2026-05-07 13:02 34.36834 -84.24248 19980 ft 421 kts
2026-05-07 13:02 34.39766 -84.23614 20327 ft 425 kts
2026-05-07 13:02 34.42654 -84.22977 20855 ft 423 kts
2026-05-07 13:02 34.45550 -84.22332 21222 ft 426 kts
2026-05-07 13:03 34.48481 -84.21671 21574 ft 429 kts
2026-05-07 13:03 34.51411 -84.21000 21899 ft 433 kts
2026-05-07 13:03 34.54410 -84.20299 22208 ft 437 kts
2026-05-07 13:03 34.57388 -84.19582 22651 ft 436 kts
2026-05-07 13:04 34.60385 -84.18848 22884 ft 442 kts
2026-05-07 13:04 34.63411 -84.18104 23141 ft 446 kts
2026-05-07 13:04 34.66447 -84.17177 23433 ft 456 kts
2026-05-07 13:04 34.69424 -84.15813 23705 ft 470 kts 16°
2026-05-07 13:05 34.72317 -84.13817 24055 ft 483 kts 26°
2026-05-07 13:05 34.74981 -84.11271 24341 ft 494 kts 35°
2026-05-07 13:05 34.77452 -84.08305 24602 ft 503 kts 42°
2026-05-07 13:05 34.79665 -84.04963 24832 ft 514 kts 52°
2026-05-07 13:06 34.81466 -84.01136 25145 ft 520 kts 62°
2026-05-07 13:06 34.82930 -83.97135 25440 ft 523 kts 65°
2026-05-07 13:06 34.84289 -83.93016 25597 ft 528 kts 67°
2026-05-07 13:06 34.85622 -83.88886 25863 ft 530 kts 66°
2026-05-07 13:07 34.87003 -83.84653 26064 ft 534 kts 66°
2026-05-07 13:07 34.88390 -83.80475 26272 ft 537 kts 66°
2026-05-07 13:07 34.89805 -83.76279 26480 ft 540 kts 65°
2026-05-07 13:07 34.91260 -83.72060 26856 ft 537 kts 64°
2026-05-07 13:08 34.92702 -83.67917 26941 ft 537 kts 64°
2026-05-07 13:08 34.94148 -83.63732 26951 ft 538 kts 64°
2026-05-07 13:08 34.95614 -83.59480 26969 ft 539 kts 64°
2026-05-07 13:08 34.97053 -83.55319 26975 ft 540 kts 65°
2026-05-07 13:09 34.98515 -83.51082 26992 ft 540 kts 64°
2026-05-07 13:09 34.99948 -83.46908 26997 ft 542 kts 65°
2026-05-07 13:09 35.01398 -83.42669 26983 ft 543 kts 65°
2026-05-07 13:09 35.02862 -83.38399 26971 ft 544 kts 65°
2026-05-07 13:10 35.04332 -83.34130 26965 ft 546 kts 65°
2026-05-07 13:10 35.05803 -83.29837 26963 ft 546 kts 65°
2026-05-07 13:10 35.07262 -83.25573 26950 ft 546 kts 65°
2026-05-07 13:10 35.08722 -83.21294 26754 ft 546 kts 65°
2026-05-07 13:11 35.10163 -83.17054 26460 ft 540 kts 65°
2026-05-07 13:11 35.11598 -83.12847 26133 ft 532 kts 65°
2026-05-07 13:11 35.13014 -83.08704 25474 ft 531 kts 65°
2026-05-07 13:11 35.14411 -83.04602 25026 ft 524 kts 65°
2026-05-07 13:12 35.15799 -83.00520 24448 ft 521 kts 65°
2026-05-07 13:12 35.17188 -82.96426 23947 ft 515 kts 65°
2026-05-07 13:12 35.18547 -82.92427 23399 ft 511 kts 65°
2026-05-07 13:12 35.19902 -82.88456 22985 ft 504 kts 65°
2026-05-07 13:13 35.21257 -82.84476 22395 ft 501 kts 65°
2026-05-07 13:13 35.22572 -82.80561 21919 ft 495 kts 65°
2026-05-07 13:13 35.23872 -82.76668 21339 ft 493 kts 65°
2026-05-07 13:13 35.25141 -82.72855 20828 ft 488 kts 65°
2026-05-07 13:14 35.26445 -82.68989 20270 ft 485 kts 65°
2026-05-07 13:14 35.27726 -82.65239 19813 ft 479 kts 64°
2026-05-07 13:14 35.29019 -82.61513 19239 ft 476 kts 64°
2026-05-07 13:14 35.30331 -82.57797 18863 ft 468 kts 63°
2026-05-07 13:15 35.31605 -82.54182 18246 ft 468 kts 64°
2026-05-07 13:15 35.32881 -82.50485 17665 ft 466 kts 64°
2026-05-07 13:15 35.34101 -82.46896 17193 ft 461 kts 65°
2026-05-07 13:15 35.35332 -82.43268 16740 ft 455 kts 65°
2026-05-07 13:16 35.36524 -82.39718 16328 ft 448 kts 65°
2026-05-07 13:16 35.37686 -82.36222 16194 ft 434 kts 65°
2026-05-07 13:16 35.38787 -82.32871 15953 ft 419 kts 66°
2026-05-07 13:16 35.39852 -82.29592 15738 ft 400 kts 66°
2026-05-07 13:17 35.40841 -82.26502 15560 ft 383 kts 70°
2026-05-07 13:17 35.41375 -82.23381 15117 ft 375 kts 93°
2026-05-07 13:17 35.40902 -82.20318 14503 ft 361 kts 122°
2026-05-07 13:17 35.39489 -82.17955 13920 ft 335 kts 152°
2026-05-07 13:18 35.37538 -82.16791 13460 ft 299 kts 181°
2026-05-07 13:18 35.35585 -82.16965 12898 ft 271 kts 211°
2026-05-07 13:18 35.34172 -82.18312 12318 ft 252 kts 242°
2026-05-07 13:18 35.33492 -82.20216 11901 ft 244 kts 254°
2026-05-07 13:19 35.33020 -82.22199 11252 ft 248 kts 255°
2026-05-07 13:19 35.32526 -82.24219 10647 ft 251 kts 254°
2026-05-07 13:19 35.32010 -82.26220 10121 ft 250 kts 254°
2026-05-07 13:19 35.31486 -82.28243 9567 ft 250 kts 253°
2026-05-07 13:20 35.30757 -82.30172 8969 ft 254 kts 239°
2026-05-07 13:20 35.29669 -82.31883 8475 ft 253 kts 232°
2026-05-07 13:20 35.28524 -82.33519 7955 ft 252 kts 234°
2026-05-07 13:20 35.27462 -82.35202 7383 ft 253 kts 237°
2026-05-07 13:21 35.26439 -82.36949 7042 ft 246 kts 238°
2026-05-07 13:21 35.25795 -82.38055 6821 ft 241 kts 238°
2026-05-07 13:21 35.24514 -82.40226 6461 ft 230 kts 240°
2026-05-07 13:21 35.23839 -82.41928 6285 ft 213 kts 262°
2026-05-07 13:22 35.23902 -82.43632 6187 ft 198 kts 289°
2026-05-07 13:22 35.24583 -82.45126 6002 ft 207 kts 310°
2026-05-07 13:22 35.25716 -82.46223 5671 ft 213 kts 331°
2026-05-07 13:22 35.27118 -82.46880 5360 ft 215 kts 339°
2026-05-07 13:23 35.28540 -82.47440 5039 ft 216 kts 339°
2026-05-07 13:23 35.29958 -82.48053 4731 ft 214 kts 337°
2026-05-07 13:23 35.31322 -82.48695 4470 ft 209 kts 337°
2026-05-07 13:23 35.32682 -82.49351 4173 ft 208 kts 338°
2026-05-07 13:24 35.34009 -82.49963 3986 ft 200 kts 338°
2026-05-07 13:24 35.35290 -82.50528 4008 ft 190 kts 340°
2026-05-07 13:24 35.36505 -82.51011 3973 ft 175 kts 340°
2026-05-07 13:24 35.37587 -82.51479 3989 ft 160 kts 336°
2026-05-07 13:25 35.38627 -82.51971 3991 ft 161 kts 337°
2026-05-07 13:25 35.39682 -82.52449 3989 ft 161 kts 339°
2026-05-07 13:25 35.40729 -82.52906 3988 ft 161 kts 338°
2026-05-07 13:25 35.41777 -82.53375 3988 ft 161 kts 338°
2026-05-07 13:26 35.42832 -82.53851 3995 ft 161 kts 338°
2026-05-07 13:26 35.43910 -82.54336 4013 ft 167 kts 338°
2026-05-07 13:26 35.45033 -82.54845 3742 ft 184 kts 338°
2026-05-07 13:26 35.46275 -82.55405 4021 ft 192 kts 338°
2026-05-07 13:27 35.47507 -82.55952 4452 ft 204 kts 338°
2026-05-07 13:27 35.48931 -82.56593 4033 ft 219 kts 339°
2026-05-07 13:27 35.50322 -82.57210 3991 ft 205 kts 339°
2026-05-07 13:27 35.51653 -82.57803 4106 ft 211 kts 338°
2026-05-07 13:28 35.52979 -82.58408 5007 ft 200 kts 336°
2026-05-07 13:28 35.54287 -82.59003 5612 ft 205 kts 336°
2026-05-07 13:28 35.55645 -82.59616 5986 ft 214 kts 336°
2026-05-07 13:28 35.57039 -82.60239 6001 ft 210 kts 336°
2026-05-07 13:29 35.58424 -82.60857 6019 ft 212 kts 336°
2026-05-07 13:29 35.59821 -82.61499 6016 ft 213 kts 336°
2026-05-07 13:29 35.61204 -82.62132 6008 ft 212 kts 336°
2026-05-07 13:29 35.62603 -82.62775 6006 ft 214 kts 335°
2026-05-07 13:30 35.63992 -82.63416 5998 ft 214 kts 336°
2026-05-07 13:30 35.65393 -82.64053 6002 ft 214 kts 336°
2026-05-07 13:30 35.66798 -82.64687 6009 ft 215 kts 336°
2026-05-07 13:30 35.68215 -82.65304 6015 ft 214 kts 337°
2026-05-07 13:31 35.69626 -82.65899 6015 ft 213 kts 336°
2026-05-07 13:31 35.71023 -82.66510 6014 ft 213 kts 335°
2026-05-07 13:31 35.72422 -82.67152 6013 ft 213 kts 335°
2026-05-07 13:31 35.73820 -82.67793 6009 ft 215 kts 336°
2026-05-07 13:32 35.75226 -82.68417 6016 ft 214 kts 336°
2026-05-07 13:32 35.76633 -82.69025 6021 ft 215 kts 336°
2026-05-07 13:32 35.78079 -82.69491 6013 ft 217 kts 352°
2026-05-07 13:32 35.79591 -82.69160 6029 ft 227 kts 24°
2026-05-07 13:33 35.80787 -82.67845 6029 ft 235 kts 56°
2026-05-07 13:33 35.81326 -82.65947 6023 ft 240 kts 85°
2026-05-07 13:33 35.81183 -82.63820 6026 ft 264 kts 109°
2026-05-07 13:33 35.80202 -82.61833 6017 ft 284 kts 140°
2026-05-07 13:34 35.78466 -82.60677 6017 ft 283 kts 170°
2026-05-07 13:34 35.74606 -82.59951 6021 ft 282 kts 173°
2026-05-07 13:34 35.72670 -82.59452 6016 ft 281 kts 169°
2026-05-07 13:35 35.70776 -82.58776 6016 ft 284 kts 162°
2026-05-07 13:35 35.68946 -82.57856 5986 ft 283 kts 158°
2026-05-07 13:35 35.67186 -82.56883 5842 ft 273 kts 158°
2026-05-07 13:35 35.65482 -82.55943 5740 ft 262 kts 159°
2026-05-07 13:36 35.63825 -82.55047 5606 ft 253 kts 159°
2026-05-07 13:36 35.62246 -82.54202 5485 ft 244 kts 159°
2026-05-07 13:36 35.60726 -82.53381 5383 ft 234 kts 158°
2026-05-07 13:36 35.59258 -82.52565 5228 ft 227 kts 158°
2026-05-07 13:37 35.57839 -82.51778 5048 ft 221 kts 158°
2026-05-07 13:37 35.56452 -82.51017 4831 ft 217 kts 158°
2026-05-07 13:37 35.55072 -82.50288 4595 ft 214 kts 159°
2026-05-07 13:37 35.53702 -82.49583 4360 ft 213 kts 159°
2026-05-07 13:38 35.52338 -82.48890 4087 ft 212 kts 159°
2026-05-07 13:38 35.50932 -82.48516 4154 ft 209 kts 183°
2026-05-07 13:38 35.49426 -82.48588 4160 ft 219 kts 181°
2026-05-07 13:38 35.47929 -82.48470 4164 ft 214 kts 175°
2026-05-07 13:39 35.46465 -82.48222 4166 ft 215 kts 166°
2026-05-07 13:39 35.45040 -82.47580 4174 ft 217 kts 156°
2026-05-07 13:39 35.43675 -82.46786 4169 ft 216 kts 155°
2026-05-07 13:39 35.42319 -82.45992 4162 ft 217 kts 155°
2026-05-07 13:40 35.40944 -82.45198 4156 ft 217 kts 156°
2026-05-07 13:40 35.39608 -82.44336 4160 ft 217 kts 148°
2026-05-07 13:40 35.38352 -82.43292 4155 ft 217 kts 145°
2026-05-07 13:40 35.37120 -82.42210 4151 ft 219 kts 145°
2026-05-07 13:41 35.35889 -82.41141 4158 ft 219 kts 146°
2026-05-07 13:41 35.34645 -82.40070 4155 ft 218 kts 146°
2026-05-07 13:41 35.33395 -82.38992 4148 ft 218 kts 146°
2026-05-07 13:41 35.32161 -82.37920 4146 ft 218 kts 145°
2026-05-07 13:42 35.30938 -82.36834 4155 ft 218 kts 144°
2026-05-07 13:42 35.29722 -82.35724 4155 ft 217 kts 144°
2026-05-07 13:42 35.28506 -82.34626 4142 ft 218 kts 146°
2026-05-07 13:42 35.27262 -82.33553 4150 ft 219 kts 147°
2026-05-07 13:43 35.26008 -82.32494 4147 ft 217 kts 148°
2026-05-07 13:43 35.24760 -82.31448 4143 ft 217 kts 153°
2026-05-07 13:43 35.23331 -82.30960 4155 ft 214 kts 189°
2026-05-07 13:43 35.21951 -82.31596 4158 ft 208 kts 219°
2026-05-07 13:44 35.20946 -82.32815 4156 ft 204 kts 240°
2026-05-07 13:44 35.20464 -82.34441 4158 ft 202 kts 267°
2026-05-07 13:44 35.20665 -82.36123 4150 ft 202 kts 293°
2026-05-07 13:44 35.21392 -82.37560 4150 ft 196 kts 312°
2026-05-07 13:45 35.22385 -82.38594 4151 ft 182 kts 322°
2026-05-07 13:45 35.23406 -82.39512 4146 ft 183 kts 320°
2026-05-07 13:45 35.24369 -82.40505 4151 ft 180 kts 310°
2026-05-07 13:45 35.25005 -82.41801 4162 ft 180 kts 294°
2026-05-07 13:46 35.25687 -82.43116 4174 ft 190 kts 316°
2026-05-07 13:46 35.26803 -82.44066 4164 ft 201 kts 329°
2026-05-07 13:46 35.28016 -82.44918 4160 ft 201 kts 327°
2026-05-07 13:46 35.29178 -82.45881 4157 ft 202 kts 323°
2026-05-07 13:47 35.30315 -82.46898 4162 ft 201 kts 323°
2026-05-07 13:47 35.31451 -82.47890 4162 ft 200 kts 323°
2026-05-07 13:47 35.32587 -82.48871 4168 ft 201 kts 324°
2026-05-07 13:47 35.33727 -82.49805 4163 ft 194 kts 329°
2026-05-07 13:48 35.34900 -82.50394 4162 ft 170 kts 341°
2026-05-07 13:48 35.36004 -82.50796 4152 ft 165 kts 340°
2026-05-07 13:48 35.37093 -82.51261 4131 ft 163 kts 337°
2026-05-07 13:48 35.38170 -82.51764 4136 ft 167 kts 338°
2026-05-07 13:49 35.39278 -82.52262 3871 ft 176 kts 339°
2026-05-07 13:49 35.40469 -82.52836 2876 ft 196 kts 342°
2026-05-07 13:49 35.41713 -82.53362 2390 ft 184 kts 339°
2026-05-07 13:49 35.42866 -82.53874 2114 ft 164 kts 339°
2026-05-07 13:50 35.43756 -82.54277 2161 ft 103 kts 340°
2026-05-07 13:50 35.44239 -82.54500 2155 ft 51 kts 341°
2026-05-07 13:50 35.44554 -82.54628 2146 ft 29 kts 357°
2026-05-07 13:50 35.44655 -82.54585 2145 ft 10 kts 65°
2026-05-07 13:51 35.44625 -82.54522 2147 ft 8 kts 148°
2026-05-07 13:51 35.44576 -82.54496 2149 ft 9 kts 158°
2026-05-07 13:51 35.44492 -82.54458 2152 ft 18 kts 160°
2026-05-07 13:51 35.44333 -82.54387 2155 ft 29 kts 160°
2026-05-07 13:52 35.44122 -82.54293 2159 ft 34 kts 160°
2026-05-07 13:52 35.43887 -82.54183 2162 ft 36 kts 159°
2026-05-07 13:52 35.43658 -82.54079 2156 ft 34 kts 154°
2026-05-07 13:52 35.43520 -82.53970 2149 ft 18 kts 133°
2026-05-07 13:53 35.43430 -82.53889 2143 ft 11 kts 147°
2026-05-07 13:53 35.43422 -82.53883 2143 ft 0 kts 148°
2026-05-07 13:53 35.43420 -82.53881 2143 ft 4 kts 147°
2026-05-07 13:54 35.43411 -82.53873 2142 ft 0 kts 149°
2026-05-07 13:54 35.43410 -82.53873 2142 ft 0 kts 149°
2026-05-07 13:55 35.43386 -82.53863 2140 ft 15 kts 174°
2026-05-07 13:55 35.43354 -82.53880 2138 ft 0 kts 240°
2026-05-07 13:55 35.43354 -82.53879 2138 ft 0 kts 240°